QPF
0.00 0.00 0.02 0.07 0.12 0.12 0.09 0.05 0.02 0.01 0.01 0.01 0.01 0.01 0.02 0.02 0.04 0.05 0.06 0.07 0.05 0.04 0.04 0.02 0.02 0.03 0.04 0.05 0.05 0.07 0.07 0.06 0.05 0.06 0.09 0.08 0.10 0.12 0.13 0.10 0.07 0.08 0.10 0.08 0.05 0.06 0.07 0.09 0.10
0.00 0.01 0.05 0.08 0.14 0.11 0.08 0.05 0.03 0.02 0.02 0.02 0.01 0.01 0.01 0.01 0.01 0.02 0.05 0.06 0.05 0.04 0.04 0.02 0.02 0.03 0.06 0.07 0.07 0.08 0.08 0.06 0.06 0.05 0.05 0.04 0.05 0.05 0.06 0.07 0.08 0.10 0.12 0.11 0.07 0.05 0.04 0.07 0.07
0.00 0.02 0.05 0.09 0.10 0.08 0.07 0.03 0.03 0.02 0.03 0.02 0.01 0.01 0.01 0.01 0.01 0.03 0.05 0.05 0.05 0.05 0.04 0.02 0.01 0.02 0.04 0.06 0.08 0.11 0.09 0.07 0.06 0.05 0.04 0.03 0.04 0.04 0.04 0.04 0.05 0.07 0.12 0.13 0.08 0.04 0.03 0.06 0.06
0.01 0.06 0.06 0.06 0.07 0.04 0.04 0.02 0.03 0.02 0.02 0.02 0.01 0.01 0.01 0.02 0.02 0.03 0.04 0.05 0.04 0.03 0.02 0.01 0.01 0.00 0.02 0.06 0.09 0.09 0.08 0.08 0.07 0.04 0.04 0.03 0.03 0.03 0.05 0.04 0.05 0.04 0.05 0.08 0.07 0.04 0.04 0.05 0.06
0.08 0.05 0.07 0.06 0.03 0.01 0.02 0.02 0.03 0.03 0.01 0.01 0.01 0.01 0.02 0.03 0.03 0.02 0.03 0.04 0.03 0.02 0.02 0.01 0.01 0.01 0.01 0.04 0.05 0.05 0.07 0.09 0.08 0.05 0.05 0.04 0.03 0.04 0.04 0.04 0.05 0.04 0.04 0.04 0.04 0.04 0.04 0.05 0.05
0.12 0.06 0.07 0.05 0.03 0.01 0.01 0.01 0.03 0.02 0.01 0.01 0.01 0.01 0.02 0.03 0.02 0.01 0.02 0.03 0.03 0.03 0.02 0.01 0.01 0.01 0.01 0.02 0.03 0.03 0.05 0.08 0.07 0.04 0.04 0.04 0.04 0.05 0.05 0.04 0.03 0.03 0.04 0.03 0.03 0.04 0.04 0.05 0.04
0.08 0.08 0.06 0.05 0.04 0.02 0.02 0.02 0.02 0.01 0.01 0.01 0.00 0.01 0.01 0.01 0.01 0.01 0.01 0.01 0.02 0.02 0.02 0.02 0.02 0.02 0.01 0.01 0.02 0.03 0.05 0.09 0.07 0.04 0.03 0.03 0.03 0.04 0.03 0.03 0.03 0.04 0.06 0.05 0.04 0.04 0.03 0.04 0.04
0.03 0.06 0.05 0.05 0.05 0.02 0.02 0.02 0.02 0.02 0.01 0.00 0.00 0.00 0.01 0.01 0.01 0.03 0.01 0.00 0.00 0.00 0.01 0.03 0.04 0.04 0.04 0.03 0.02 0.03 0.05 0.08 0.08 0.04 0.02 0.02 0.03 0.03 0.04 0.03 0.03 0.04 0.09 0.11 0.07 0.06 0.04 0.05 0.05
0.04 0.08 0.05 0.04 0.03 0.02 0.01 0.01 0.02 0.01 0.01 0.00 0.00 0.00 0.01 0.01 0.01 0.04 0.03 0.01 0.00 0.00 0.01 0.03 0.04 0.05 0.05 0.04 0.03 0.04 0.05 0.06 0.07 0.05 0.02 0.03 0.06 0.05 0.06 0.05 0.04 0.03 0.05 0.08 0.09 0.08 0.06 0.07 0.06
0.02 0.04 0.03 0.02 0.01 0.00 0.00 0.00 0.00 0.00 0.01 0.01 0.00 0.01 0.01 0.01 0.02 0.03 0.03 0.02 0.02 0.03 0.04 0.05 0.05 0.04 0.04 0.03 0.06 0.09 0.08 0.07 0.07 0.09 0.08 0.08 0.09 0.07 0.05 0.05 0.04 0.03 0.04 0.05 0.07 0.09 0.08 0.09 0.08
0.01 0.01 0.00 0.00 0.00 0.00 0.00 0.00 0.00 0.01 0.01 0.01 0.01 0.00 0.00 0.00 0.01 0.02 0.03 0.04 0.04 0.05 0.03 0.03 0.04 0.04 0.04 0.04 0.07 0.11 0.12 0.11 0.10 0.11 0.10 0.09 0.08 0.06 0.06 0.07 0.07 0.07 0.07 0.12 0.17 0.15 0.11 0.12 0.10
0.01 0.01 0.00 0.00 0.00 0.00 0.00 0.00 0.00 0.00 0.00 0.00 0.00 0.00 0.01 0.01 0.01 0.01 0.03 0.05 0.04 0.04 0.02 0.02 0.03 0.03 0.03 0.04 0.07 0.11 0.10 0.11 0.09 0.08 0.07 0.08 0.08 0.07 0.07 0.07 0.08 0.07 0.09 0.12 0.15 0.16 0.14 0.14 0.13
0.01 0.00 0.00 0.00 0.00 0.00 0.00 0.00 0.00 0.01 0.00 0.00 0.00 0.00 0.00 0.01 0.02 0.02 0.01 0.01 0.01 0.03 0.03 0.03 0.02 0.02 0.03 0.04 0.06 0.10 0.12 0.10 0.07 0.07 0.08 0.08 0.07 0.08 0.08 0.08 0.07 0.05 0.06 0.08 0.07 0.10 0.11 0.14 0.15
0.00 0.00 0.00 0.00 0.00 0.00 0.00 0.01 0.01 0.01 0.00 0.00 0.00 0.00 0.00 0.01 0.02 0.02 0.01 0.01 0.01 0.02 0.01 0.02 0.03 0.02 0.02 0.03 0.05 0.09 0.11 0.11 0.09 0.08 0.08 0.08 0.07 0.07 0.07 0.09 0.08 0.06 0.06 0.07 0.08 0.10 0.12 0.18 0.19
0.01 0.02 0.01 0.00 0.00 0.00 0.01 0.01 0.00 0.01 0.00 0.00 0.00 0.00 0.00 0.00 0.01 0.01 0.02 0.02 0.02 0.02 0.01 0.01 0.03 0.02 0.02 0.02 0.04 0.06 0.08 0.08 0.07 0.08 0.07 0.06 0.06 0.06 0.07 0.08 0.07 0.07 0.07 0.08 0.10 0.11 0.12 0.12 0.10
0.01 0.04 0.03 0.02 0.00 0.00 0.01 0.02 0.00 0.00 0.00 0.00 0.00 0.00 0.00 0.00 0.01 0.01 0.01 0.01 0.01 0.02 0.03 0.02 0.01 0.02 0.02 0.02 0.03 0.04 0.06 0.07 0.06 0.06 0.05 0.05 0.06 0.07 0.07 0.07 0.05 0.06 0.08 0.09 0.08 0.07 0.07 0.07 0.07
0.03 0.06 0.08 0.04 0.01 0.00 0.01 0.02 0.01 0.00 0.00 0.00 0.00 0.00 0.00 0.01 0.01 0.01 0.01 0.01 0.01 0.02 0.04 0.03 0.02 0.02 0.02 0.02 0.03 0.03 0.04 0.05 0.04 0.04 0.05 0.05 0.04 0.05 0.06 0.07 0.08 0.07 0.07 0.07 0.07 0.08 0.08 0.06 0.05
0.03 0.02 0.04 0.03 0.01 0.00 0.02 0.01 0.00 0.00 0.00 0.00 0.00 0.01 0.01 0.02 0.02 0.02 0.01 0.01 0.01 0.01 0.03 0.04 0.03 0.03 0.03 0.03 0.03 0.03 0.04 0.06 0.06 0.06 0.05 0.03 0.04 0.04 0.05 0.07 0.07 0.06 0.07 0.07 0.08 0.08 0.06 0.06 0.06
0.01 0.01 0.02 0.02 0.01 0.00 0.01 0.01 0.01 0.00 0.00 0.00 0.00 0.01 0.01 0.02 0.01 0.01 0.02 0.01 0.01 0.01 0.03 0.04 0.03 0.03 0.04 0.04 0.05 0.04 0.05 0.04 0.04 0.03 0.03 0.03 0.03 0.03 0.04 0.04 0.06 0.04 0.06 0.06 0.07 0.06 0.05 0.06 0.05
0.01 0.01 0.01 0.01 0.01 0.00 0.00 0.01 0.01 0.01 0.00 0.00 0.00 0.01 0.01 0.00 0.00 0.01 0.01 0.01 0.02 0.03 0.03 0.03 0.03 0.02 0.02 0.04 0.05 0.05 0.05 0.04 0.04 0.03 0.04 0.03 0.03 0.04 0.05 0.05 0.04 0.03 0.05 0.07 0.06 0.05 0.05 0.04 0.05
0.01 0.01 0.01 0.00 0.00 0.01 0.01 0.02 0.01 0.01 0.00 0.00 0.01 0.02 0.01 0.00 0.00 0.01 0.00 0.01 0.01 0.02 0.02 0.02 0.03 0.03 0.02 0.03 0.03 0.05 0.04 0.04 0.06 0.06 0.05 0.04 0.04 0.04 0.06 0.05 0.05 0.04 0.04 0.05 0.04 0.03 0.03 0.04 0.05
0.00 0.00 0.00 0.00 0.01 0.01 0.02 0.04 0.03 0.01 0.01 0.00 0.00 0.01 0.01 0.01 0.00 0.01 0.01 0.01 0.01 0.02 0.04 0.04 0.03 0.03 0.03 0.03 0.03 0.04 0.05 0.06 0.06 0.06 0.06 0.04 0.04 0.05 0.06 0.06 0.06 0.06 0.05 0.05 0.03 0.03 0.03 0.04 0.04
0.00 0.00 0.00 0.00 0.01 0.01 0.03 0.04 0.03 0.02 0.01 0.01 0.01 0.01 0.00 0.00 0.01 0.01 0.01 0.02 0.02 0.05 0.06 0.07 0.04 0.05 0.07 0.08 0.06 0.09 0.07 0.06 0.05 0.05 0.05 0.05 0.04 0.04 0.04 0.05 0.05 0.04 0.05 0.06 0.06 0.06 0.04 0.05 0.05
0.00 0.00 0.00 0.01 0.01 0.03 0.04 0.04 0.05 0.04 0.02 0.02 0.02 0.01 0.00 0.00 0.00 0.01 0.02 0.01 0.02 0.03 0.04 0.04 0.03 0.03 0.05 0.06 0.07 0.09 0.06 0.05 0.06 0.05 0.04 0.04 0.04 0.03 0.03 0.05 0.05 0.04 0.04 0.05 0.05 0.05 0.05 0.05 0.05
0.00 0.01 0.04 0.06 0.03 0.03 0.02 0.02 0.03 0.02 0.01 0.02 0.02 0.00 0.00 0.00 0.00 0.00 0.01 0.01 0.02 0.02 0.03 0.03 0.03 0.03 0.03 0.04 0.04 0.05 0.06 0.07 0.07 0.04 0.03 0.02 0.02 0.02 0.04 0.04 0.07 0.06 0.06 0.05 0.05 0.06 0.06 0.05 0.06
0.00 0.01 0.04 0.04 0.02 0.02 0.02 0.03 0.04 0.01 0.00 0.00 0.00 0.00 0.00 0.00 0.00 0.01 0.01 0.01 0.02 0.02 0.03 0.02 0.03 0.03 0.04 0.05 0.04 0.06 0.06 0.06 0.04 0.03 0.02 0.02 0.02 0.02 0.03 0.05 0.05 0.06 0.06 0.06 0.08 0.07 0.06 0.06 0.05
0.00 0.00 0.00 0.01 0.01 0.01 0.02 0.03 0.03 0.01 0.00 0.00 0.00 0.00 0.00 0.00 0.00 0.01 0.01 0.01 0.02 0.02 0.02 0.03 0.02 0.03 0.04 0.07 0.06 0.04 0.05 0.04 0.03 0.03 0.03 0.03 0.03 0.02 0.04 0.06 0.07 0.06 0.05 0.06 0.07 0.07 0.07 0.07 0.05
0.00 0.00 0.00 0.01 0.01 0.02 0.02 0.03 0.03 0.02 0.01 0.00 0.00 0.00 0.00 0.00 0.01 0.01 0.01 0.01 0.02 0.01 0.01 0.02 0.03 0.03 0.03 0.05 0.05 0.03 0.04 0.04 0.04 0.04 0.03 0.03 0.03 0.03 0.04 0.04 0.05 0.05 0.06 0.06 0.07 0.05 0.05 0.07 0.06
0.01 0.01 0.00 0.01 0.01 0.02 0.03 0.05 0.03 0.02 0.01 0.01 0.01 0.02 0.01 0.01 0.02 0.02 0.01 0.01 0.00 0.01 0.04 0.05 0.04 0.03 0.03 0.02 0.03 0.03 0.04 0.03 0.03 0.03 0.02 0.02 0.03 0.03 0.02 0.02 0.02 0.02 0.03 0.05 0.06 0.05 0.06 0.06 0.06
0.01 0.01 0.01 0.02 0.02 0.02 0.03 0.03 0.02 0.01 0.01 0.01 0.02 0.02 0.01 0.01 0.01 0.01 0.01 0.01 0.00 0.01 0.02 0.02 0.01 0.01 0.02 0.02 0.03 0.03 0.03 0.02 0.03 0.02 0.02 0.01 0.03 0.02 0.01 0.02 0.02 0.02 0.03 0.04 0.05 0.05 0.06 0.06 0.06
MSLP
1007.57 1008.17 1008.79 1009.29 1009.57 1009.58 1009.32 1008.86 1008.32 1007.79 1007.38 1007.13 1007.03 1007.02 1007.01 1006.94 1006.76 1006.48 1006.13 1005.82 1005.63 1005.62 1005.82 1006.20 1006.66 1007.13 1007.50 1007.72 1007.80 1007.77 1007.71 1007.72 1007.84 1008.13 1008.55 1009.05 1009.57 1010.03 1010.41 1010.69 1010.90 1011.09 1011.30 1011.56 1011.88 1012.23 1012.56 1012.83 1013.02
1007.49 1008.12 1008.70 1009.10 1009.25 1009.11 1008.72 1008.16 1007.56 1007.02 1006.63 1006.41 1006.33 1006.33 1006.32 1006.23 1006.02 1005.73 1005.42 1005.18 1005.10 1005.25 1005.61 1006.15 1006.75 1007.32 1007.75 1008.00 1008.08 1008.04 1007.97 1007.96 1008.08 1008.37 1008.79 1009.29 1009.80 1010.25 1010.60 1010.86 1011.05 1011.24 1011.46 1011.75 1012.10 1012.47 1012.82 1013.09 1013.25
1007.53 1008.15 1008.66 1008.94 1008.94 1008.65 1008.13 1007.50 1006.86 1006.34 1005.99 1005.82 1005.78 1005.79 1005.76 1005.63 1005.39 1005.07 1004.76 1004.57 1004.59 1004.86 1005.37 1006.05 1006.79 1007.46 1007.98 1008.27 1008.38 1008.35 1008.28 1008.27 1008.40 1008.68 1009.09 1009.58 1010.06 1010.47 1010.80 1011.03 1011.22 1011.41 1011.65 1011.97 1012.34 1012.74 1013.09 1013.36 1013.50
1007.69 1008.26 1008.67 1008.81 1008.65 1008.22 1007.60 1006.91 1006.27 1005.79 1005.51 1005.41 1005.42 1005.45 1005.40 1005.24 1004.95 1004.59 1004.27 1004.11 1004.19 1004.54 1005.16 1005.96 1006.80 1007.57 1008.15 1008.51 1008.65 1008.65 1008.61 1008.62 1008.75 1009.04 1009.44 1009.90 1010.35 1010.74 1011.03 1011.25 1011.44 1011.64 1011.91 1012.25 1012.65 1013.06 1013.41 1013.66 1013.78
1007.92 1008.42 1008.70 1008.69 1008.38 1007.82 1007.11 1006.40 1005.78 1005.37 1005.17 1005.15 1005.22 1005.28 1005.24 1005.06 1004.73 1004.34 1004.00 1003.84 1003.95 1004.36 1005.03 1005.89 1006.80 1007.63 1008.26 1008.67 1008.86 1008.90 1008.90 1008.94 1009.10 1009.39 1009.79 1010.23 1010.66 1011.03 1011.31 1011.53 1011.73 1011.95 1012.24 1012.60 1013.01 1013.42 1013.75 1013.97 1014.05
1008.17 1008.56 1008.69 1008.52 1008.06 1007.40 1006.63 1005.91 1005.34 1005.00 1004.90 1004.97 1005.12 1005.23 1005.22 1005.04 1004.70 1004.30 1003.96 1003.80 1003.90 1004.32 1005.01 1005.88 1006.80 1007.64 1008.29 1008.73 1008.96 1009.06 1009.10 1009.19 1009.39 1009.70 1010.10 1010.55 1010.97 1011.33 1011.62 1011.85 1012.06 1012.31 1012.62 1012.99 1013.39 1013.78 1014.07 1014.24 1014.27
1008.34 1008.59 1008.56 1008.24 1007.66 1006.90 1006.10 1005.39 1004.88 1004.62 1004.62 1004.78 1005.02 1005.20 1005.24 1005.09 1004.79 1004.42 1004.09 1003.93 1004.03 1004.43 1005.08 1005.91 1006.79 1007.60 1008.24 1008.69 1008.95 1009.09 1009.20 1009.34 1009.59 1009.93 1010.36 1010.81 1011.24 1011.61 1011.91 1012.16 1012.40 1012.67 1012.99 1013.35 1013.73 1014.06 1014.30 1014.40 1014.38
1008.37 1008.46 1008.28 1007.81 1007.11 1006.30 1005.48 1004.80 1004.34 1004.17 1004.26 1004.51 1004.83 1005.09 1005.20 1005.13 1004.90 1004.59 1004.31 1004.18 1004.28 1004.64 1005.24 1005.99 1006.79 1007.53 1008.13 1008.56 1008.84 1009.02 1009.19 1009.40 1009.69 1010.08 1010.53 1011.00 1011.44 1011.83 1012.14 1012.42 1012.67 1012.96 1013.27 1013.61 1013.94 1014.22 1014.38 1014.41 1014.31
1008.21 1008.15 1007.81 1007.22 1006.44 1005.58 1004.78 1004.14 1003.74 1003.64 1003.79 1004.12 1004.51 1004.85 1005.05 1005.08 1004.96 1004.74 1004.55 1004.47 1004.58 1004.90 1005.43 1006.09 1006.79 1007.44 1007.98 1008.38 1008.67 1008.89 1009.11 1009.38 1009.73 1010.15 1010.63 1011.11 1011.56 1011.95 1012.28 1012.57 1012.84 1013.12 1013.43 1013.73 1014.01 1014.21 1014.29 1014.25 1014.09
1007.88 1007.66 1007.19 1006.50 1005.68 1004.82 1004.04 1003.45 1003.12 1003.07 1003.28 1003.65 1004.09 1004.50 1004.78 1004.92 1004.91 1004.82 1004.72 1004.71 1004.85 1005.15 1005.62 1006.18 1006.78 1007.33 1007.81 1008.18 1008.48 1008.74 1009.01 1009.33 1009.72 1010.18 1010.66 1011.15 1011.60 1011.99 1012.32 1012.61 1012.88 1013.16 1013.43 1013.70 1013.91 1014.05 1014.06 1013.95 1013.74
1007.44 1007.08 1006.51 1005.76 1004.93 1004.10 1003.38 1002.85 1002.57 1002.57 1002.80 1003.19 1003.65 1004.09 1004.44 1004.66 1004.76 1004.79 1004.80 1004.87 1005.04 1005.34 1005.75 1006.23 1006.74 1007.23 1007.65 1008.01 1008.32 1008.61 1008.92 1009.29 1009.71 1010.17 1010.66 1011.13 1011.56 1011.93 1012.25 1012.53 1012.80 1013.06 1013.31 1013.54 1013.71 1013.78 1013.74 1013.59 1013.36
1006.98 1006.51 1005.86 1005.10 1004.29 1003.52 1002.88 1002.43 1002.21 1002.24 1002.47 1002.84 1003.28 1003.72 1004.09 1004.37 1004.55 1004.67 1004.78 1004.91 1005.12 1005.42 1005.79 1006.22 1006.67 1007.11 1007.50 1007.86 1008.19 1008.52 1008.88 1009.27 1009.70 1010.16 1010.62 1011.06 1011.46 1011.80 1012.10 1012.37 1012.63 1012.88 1013.11 1013.31 1013.45 1013.49 1013.42 1013.25 1013.02
1006.60 1006.05 1005.37 1004.62 1003.87 1003.19 1002.66 1002.30 1002.14 1002.18 1002.39 1002.72 1003.11 1003.50 1003.84 1004.12 1004.34 1004.50 1004.66 1004.84 1005.08 1005.37 1005.73 1006.13 1006.55 1006.96 1007.36 1007.74 1008.10 1008.47 1008.86 1009.27 1009.70 1010.14 1010.56 1010.96 1011.31 1011.62 1011.90 1012.15 1012.40 1012.65 1012.88 1013.07 1013.20 1013.23 1013.17 1013.01 1012.80
1006.38 1005.78 1005.10 1004.39 1003.74 1003.18 1002.76 1002.50 1002.40 1002.46 1002.63 1002.89 1003.19 1003.49 1003.76 1003.99 1004.18 1004.34 1004.51 1004.70 1004.93 1005.22 1005.56 1005.94 1006.35 1006.78 1007.20 1007.62 1008.03 1008.44 1008.86 1009.28 1009.69 1010.09 1010.46 1010.81 1011.11 1011.39 1011.65 1011.90 1012.16 1012.42 1012.66 1012.86 1013.01 1013.06 1013.02 1012.90 1012.73
1006.35 1005.73 1005.06 1004.43 1003.89 1003.46 1003.16 1003.00 1002.97 1003.03 1003.16 1003.34 1003.53 1003.71 1003.87 1004.00 1004.12 1004.23 1004.35 1004.51 1004.72 1004.98 1005.31 1005.68 1006.10 1006.55 1007.02 1007.49 1007.95 1008.40 1008.84 1009.26 1009.65 1010.00 1010.32 1010.61 1010.87 1011.12 1011.38 1011.64 1011.92 1012.20 1012.48 1012.71 1012.88 1012.98 1012.99 1012.92 1012.80
1006.47 1005.85 1005.24 1004.70 1004.27 1003.97 1003.80 1003.73 1003.74 1003.81 1003.89 1003.98 1004.05 1004.10 1004.13 1004.15 1004.17 1004.19 1004.24 1004.34 1004.50 1004.73 1005.03 1005.40 1005.83 1006.31 1006.82 1007.34 1007.85 1008.34 1008.79 1009.20 1009.55 1009.86 1010.12 1010.37 1010.60 1010.83 1011.09 1011.38 1011.69 1012.01 1012.32 1012.60 1012.82 1012.96 1013.02 1013.01 1012.95
1006.67 1006.08 1005.53 1005.09 1004.79 1004.62 1004.55 1004.56 1004.61 1004.66 1004.69 1004.69 1004.65 1004.58 1004.48 1004.39 1004.30 1004.23 1004.20 1004.23 1004.33 1004.51 1004.78 1005.14 1005.58 1006.08 1006.63 1007.19 1007.74 1008.25 1008.71 1009.10 1009.42 1009.68 1009.90 1010.10 1010.31 1010.54 1010.80 1011.12 1011.46 1011.82 1012.18 1012.49 1012.76 1012.95 1013.07 1013.11 1013.11
1006.86 1006.33 1005.87 1005.54 1005.35 1005.28 1005.30 1005.36 1005.42 1005.45 1005.41 1005.33 1005.19 1005.02 1004.83 1004.64 1004.47 1004.33 1004.24 1004.21 1004.25 1004.38 1004.62 1004.96 1005.39 1005.91 1006.48 1007.07 1007.64 1008.17 1008.62 1008.99 1009.28 1009.50 1009.67 1009.84 1010.02 1010.25 1010.53 1010.86 1011.23 1011.63 1012.02 1012.37 1012.67 1012.90 1013.07 1013.18 1013.23
1006.97 1006.51 1006.17 1005.95 1005.87 1005.89 1005.97 1006.05 1006.09 1006.06 1005.96 1005.79 1005.57 1005.33 1005.08 1004.84 1004.63 1004.46 1004.34 1004.27 1004.29 1004.39 1004.59 1004.90 1005.33 1005.84 1006.42 1007.01 1007.59 1008.12 1008.56 1008.90 1009.16 1009.34 1009.48 1009.61 1009.77 1009.99 1010.27 1010.61 1011.00 1011.41 1011.82 1012.19 1012.52 1012.78 1012.99 1013.14 1013.25
1006.94 1006.61 1006.39 1006.31 1006.33 1006.41 1006.51 1006.57 1006.56 1006.46 1006.27 1006.02 1005.74 1005.45 1005.18 1004.94 1004.74 1004.59 1004.48 1004.43 1004.43 1004.52 1004.70 1004.99 1005.39 1005.89 1006.44 1007.03 1007.60 1008.11 1008.54 1008.86 1009.08 1009.23 1009.34 1009.44 1009.58 1009.77 1010.04 1010.37 1010.75 1011.16 1011.56 1011.94 1012.28 1012.57 1012.81 1013.00 1013.15
1006.80 1006.62 1006.55 1006.60 1006.72 1006.86 1006.95 1006.97 1006.87 1006.67 1006.38 1006.04 1005.70 1005.39 1005.13 1004.93 1004.79 1004.70 1004.65 1004.64 1004.67 1004.77 1004.94 1005.21 1005.57 1006.03 1006.56 1007.12 1007.67 1008.16 1008.57 1008.87 1009.07 1009.19 1009.26 1009.34 1009.44 1009.60 1009.83 1010.13 1010.49 1010.87 1011.25 1011.62 1011.95 1012.25 1012.51 1012.75 1012.94
1006.60 1006.59 1006.70 1006.89 1007.11 1007.28 1007.36 1007.30 1007.10 1006.78 1006.37 1005.94 1005.54 1005.20 1004.96 1004.82 1004.77 1004.77 1004.81 1004.87 1004.96 1005.08 1005.25 1005.49 1005.82 1006.23 1006.72 1007.24 1007.75 1008.22 1008.61 1008.90 1009.08 1009.18 1009.23 1009.27 1009.34 1009.45 1009.64 1009.89 1010.19 1010.53 1010.88 1011.23 1011.55 1011.85 1012.13 1012.39 1012.62
1006.41 1006.59 1006.88 1007.22 1007.54 1007.75 1007.81 1007.67 1007.36 1006.90 1006.37 1005.83 1005.36 1005.00 1004.78 1004.69 1004.72 1004.82 1004.96 1005.10 1005.24 1005.39 1005.56 1005.78 1006.06 1006.43 1006.86 1007.33 1007.81 1008.25 1008.62 1008.90 1009.08 1009.17 1009.20 1009.21 1009.24 1009.30 1009.43 1009.63 1009.88 1010.16 1010.47 1010.78 1011.09 1011.38 1011.67 1011.94 1012.21
1006.32 1006.68 1007.15 1007.64 1008.05 1008.30 1008.34 1008.14 1007.72 1007.14 1006.48 1005.83 1005.28 1004.88 1004.66 1004.61 1004.70 1004.87 1005.09 1005.30 1005.49 1005.66 1005.82 1006.00 1006.24 1006.54 1006.91 1007.33 1007.77 1008.19 1008.56 1008.83 1009.01 1009.10 1009.12 1009.11 1009.10 1009.12 1009.20 1009.33 1009.53 1009.77 1010.03 1010.31 1010.59 1010.88 1011.15 1011.43 1011.71
1006.36 1006.88 1007.50 1008.12 1008.63 1008.94 1008.97 1008.73 1008.23 1007.55 1006.78 1006.02 1005.39 1004.93 1004.67 1004.62 1004.74 1004.95 1005.21 1005.46 1005.67 1005.84 1005.98 1006.12 1006.30 1006.54 1006.84 1007.21 1007.61 1008.00 1008.36 1008.63 1008.82 1008.92 1008.94 1008.92 1008.89 1008.88 1008.91 1009.00 1009.15 1009.35 1009.58 1009.83 1010.09 1010.35 1010.61 1010.87 1011.14
1006.53 1007.17 1007.91 1008.64 1009.23 1009.59 1009.66 1009.40 1008.86 1008.11 1007.26 1006.43 1005.71 1005.18 1004.87 1004.78 1004.87 1005.08 1005.33 1005.58 1005.78 1005.92 1006.02 1006.11 1006.23 1006.40 1006.64 1006.94 1007.30 1007.66 1008.01 1008.29 1008.49 1008.61 1008.64 1008.62 1008.59 1008.56 1008.57 1008.63 1008.75 1008.92 1009.13 1009.36 1009.59 1009.83 1010.06 1010.29 1010.51
1006.79 1007.50 1008.31 1009.11 1009.77 1010.18 1010.29 1010.06 1009.53 1008.77 1007.88 1007.00 1006.22 1005.61 1005.23 1005.08 1005.10 1005.26 1005.46 1005.67 1005.82 1005.92 1005.97 1006.00 1006.05 1006.14 1006.31 1006.56 1006.86 1007.20 1007.52 1007.81 1008.02 1008.15 1008.21 1008.21 1008.18 1008.15 1008.16 1008.21 1008.32 1008.48 1008.68 1008.90 1009.12 1009.32 1009.51 1009.69 1009.85
1007.09 1007.80 1008.62 1009.45 1010.15 1010.62 1010.78 1010.62 1010.14 1009.41 1008.54 1007.65 1006.83 1006.18 1005.73 1005.48 1005.43 1005.50 1005.62 1005.75 1005.84 1005.88 1005.86 1005.82 1005.80 1005.82 1005.92 1006.10 1006.34 1006.63 1006.93 1007.21 1007.42 1007.57 1007.65 1007.67 1007.66 1007.66 1007.68 1007.74 1007.86 1008.03 1008.23 1008.44 1008.65 1008.83 1008.98 1009.09 1009.17
1007.38 1008.03 1008.81 1009.61 1010.31 1010.82 1011.05 1010.96 1010.57 1009.93 1009.13 1008.27 1007.47 1006.79 1006.28 1005.96 1005.81 1005.78 1005.81 1005.86 1005.86 1005.83 1005.74 1005.64 1005.54 1005.50 1005.52 1005.62 1005.80 1006.03 1006.29 1006.53 1006.74 1006.89 1006.98 1007.02 1007.04 1007.06 1007.11 1007.20 1007.34 1007.52 1007.73 1007.95 1008.15 1008.31 1008.42 1008.48 1008.50
1007.64 1008.18 1008.86 1009.59 1010.26 1010.77 1011.05 1011.06 1010.78 1010.25 1009.56 1008.79 1008.03 1007.36 1006.83 1006.45 1006.22 1006.10 1006.04 1005.99 1005.92 1005.81 1005.66 1005.49 1005.33 1005.21 1005.16 1005.18 1005.28 1005.43 1005.63 1005.82 1006.00 1006.13 1006.22 1006.28 1006.32 1006.36 1006.43 1006.55 1006.71 1006.92 1007.14 1007.37 1007.57 1007.72 1007.81 1007.84 1007.81
Thickness
5829 5831 5831 5821 5802 5794 5799 5815 5825 5825 5829 5838 5841 5834 5821 5813 5803 5789 5815 5827 5824 5818 5813 5808 5805 5804 5802 5801 5799 5798 5797 5796 5794 5793 5792 5791 5789 5789 5788 5787 5786 5785 5784 5782 5781 5779 5778 5777 5776
5838 5839 5828 5813 5794 5790 5802 5822 5823 5828 5837 5845 5842 5835 5824 5816 5822 5817 5821 5826 5826 5820 5814 5809 5805 5804 5802 5800 5799 5797 5796 5795 5793 5792 5791 5790 5789 5788 5788 5787 5786 5785 5784 5782 5781 5780 5778 5777 5776
5841 5841 5821 5809 5803 5805 5808 5827 5831 5840 5848 5844 5835 5833 5823 5816 5821 5821 5825 5829 5827 5821 5815 5808 5806 5804 5802 5800 5798 5797 5795 5794 5792 5791 5790 5790 5789 5788 5788 5787 5786 5785 5784 5782 5781 5780 5779 5777 5776
5841 5833 5823 5813 5810 5826 5829 5835 5842 5841 5844 5846 5837 5824 5823 5830 5828 5828 5832 5832 5827 5821 5816 5809 5806 5804 5802 5800 5798 5797 5795 5794 5792 5791 5790 5790 5789 5788 5788 5787 5786 5785 5784 5783 5782 5781 5779 5778 5776
5842 5827 5812 5812 5823 5837 5845 5848 5849 5839 5837 5839 5835 5817 5813 5829 5835 5835 5834 5832 5827 5822 5816 5810 5806 5804 5802 5800 5798 5797 5795 5794 5792 5791 5791 5790 5790 5789 5788 5788 5787 5786 5785 5784 5783 5782 5780 5779 5777
5830 5829 5809 5811 5826 5842 5850 5855 5851 5841 5837 5838 5833 5820 5814 5831 5833 5834 5835 5833 5830 5824 5817 5810 5806 5804 5802 5801 5799 5797 5796 5794 5793 5792 5791 5791 5790 5790 5789 5788 5787 5787 5786 5785 5784 5783 5781 5780 5779
5831 5829 5821 5825 5829 5836 5849 5859 5851 5843 5837 5839 5841 5822 5818 5828 5834 5836 5836 5835 5831 5826 5819 5813 5808 5805 5803 5801 5800 5798 5797 5795 5794 5793 5792 5792 5791 5790 5790 5789 5788 5788 5787 5786 5785 5784 5783 5782 5780
5855 5839 5829 5834 5832 5835 5854 5860 5858 5849 5842 5854 5851 5826 5816 5828 5837 5837 5836 5833 5830 5826 5822 5817 5813 5809 5806 5803 5800 5799 5798 5796 5795 5794 5793 5793 5792 5792 5791 5790 5790 5789 5788 5787 5786 5786 5785 5783 5782
5866 5835 5827 5839 5841 5842 5858 5856 5859 5863 5853 5851 5851 5843 5837 5839 5838 5832 5828 5826 5824 5824 5823 5821 5817 5813 5810 5807 5804 5801 5799 5797 5796 5795 5794 5794 5794 5794 5793 5792 5791 5790 5790 5789 5788 5787 5786 5785 5783
5858 5832 5840 5858 5863 5858 5861 5859 5860 5855 5845 5841 5840 5842 5842 5839 5834 5827 5822 5820 5819 5819 5821 5822 5819 5816 5814 5811 5806 5804 5802 5799 5798 5797 5796 5795 5796 5795 5795 5794 5792 5791 5791 5790 5790 5789 5788 5786 5786
5866 5852 5862 5870 5876 5874 5866 5863 5867 5854 5838 5841 5836 5836 5838 5836 5831 5827 5824 5821 5819 5821 5822 5822 5819 5817 5815 5812 5808 5807 5805 5802 5801 5799 5798 5798 5797 5797 5796 5795 5793 5792 5791 5791 5791 5789 5789 5789 5789
5869 5871 5876 5876 5882 5876 5868 5866 5863 5857 5851 5858 5854 5847 5840 5835 5831 5828 5824 5823 5822 5822 5821 5822 5820 5817 5815 5813 5811 5809 5807 5804 5803 5801 5800 5799 5798 5798 5797 5796 5795 5794 5794 5793 5793 5792 5791 5790 5790
5868 5871 5880 5884 5883 5879 5873 5866 5862 5859 5865 5865 5858 5849 5841 5837 5833 5832 5830 5828 5824 5822 5822 5821 5819 5816 5814 5811 5810 5810 5808 5806 5804 5803 5801 5800 5799 5798 5798 5796 5796 5795 5795 5794 5793 5792 5791 5790 5790
5871 5876 5879 5883 5882 5880 5868 5864 5862 5860 5868 5861 5853 5846 5844 5840 5836 5832 5829 5826 5823 5822 5821 5821 5818 5815 5812 5810 5809 5809 5808 5806 5805 5803 5801 5800 5800 5799 5798 5796 5795 5795 5795 5794 5793 5792 5791 5790 5789
5877 5865 5868 5878 5882 5881 5872 5851 5857 5867 5866 5855 5850 5848 5845 5842 5838 5833 5830 5827 5826 5824 5823 5820 5818 5815 5812 5810 5809 5809 5808 5807 5805 5803 5802 5800 5800 5799 5798 5797 5795 5795 5795 5794 5792 5792 5791 5789 5789
5866 5854 5845 5867 5879 5882 5863 5833 5858 5871 5864 5853 5851 5848 5844 5842 5840 5837 5834 5830 5829 5826 5822 5820 5820 5814 5811 5810 5808 5809 5808 5806 5805 5803 5802 5800 5800 5799 5797 5796 5795 5795 5795 5793 5791 5789 5788 5786 5786
5850 5839 5841 5857 5879 5878 5861 5843 5862 5875 5866 5854 5850 5847 5844 5841 5839 5838 5836 5833 5830 5827 5822 5819 5818 5814 5811 5809 5808 5806 5806 5805 5804 5802 5801 5800 5799 5798 5797 5796 5795 5795 5794 5792 5790 5788 5786 5783 5783
5836 5842 5844 5852 5873 5874 5861 5855 5865 5873 5868 5857 5852 5849 5845 5840 5838 5840 5838 5836 5832 5828 5823 5819 5816 5814 5811 5809 5807 5805 5804 5803 5802 5801 5800 5799 5798 5798 5797 5796 5794 5794 5792 5789 5788 5785 5785 5783 5782
5859 5855 5853 5863 5881 5872 5861 5857 5862 5870 5866 5858 5854 5850 5846 5842 5843 5842 5840 5838 5833 5828 5822 5819 5815 5813 5810 5807 5804 5801 5799 5800 5800 5801 5799 5798 5797 5796 5795 5793 5792 5791 5789 5787 5785 5783 5781 5780 5781
5862 5853 5855 5865 5880 5873 5860 5858 5865 5869 5865 5862 5857 5851 5847 5844 5842 5841 5840 5837 5832 5827 5822 5819 5815 5812 5809 5807 5805 5803 5801 5800 5800 5800 5798 5797 5795 5794 5795 5791 5790 5789 5787 5785 5783 5780 5777 5777 5778
5859 5856 5859 5859 5872 5874 5857 5842 5853 5862 5869 5867 5863 5858 5853 5848 5843 5840 5838 5836 5834 5828 5824 5821 5816 5813 5810 5808 5805 5802 5799 5797 5796 5794 5794 5794 5793 5792 5791 5789 5788 5787 5785 5782 5780 5778 5775 5771 5773
5850 5871 5870 5865 5853 5843 5847 5817 5836 5848 5852 5857 5859 5858 5856 5853 5849 5843 5840 5836 5833 5830 5827 5822 5817 5813 5810 5808 5804 5799 5794 5790 5790 5791 5791 5792 5791 5790 5789 5787 5785 5784 5782 5779 5778 5777 5774 5770 5766
5861 5877 5869 5862 5847 5836 5839 5823 5824 5842 5835 5846 5854 5858 5858 5856 5851 5846 5842 5838 5836 5833 5828 5823 5817 5812 5810 5807 5803 5797 5794 5792 5791 5790 5788 5788 5788 5788 5786 5784 5782 5780 5778 5776 5774 5773 5770 5768 5765
5876 5870 5861 5855 5840 5811 5827 5821 5816 5834 5838 5844 5853 5857 5858 5855 5852 5847 5843 5840 5836 5833 5828 5822 5815 5811 5809 5805 5801 5796 5792 5790 5787 5785 5784 5783 5783 5783 5782 5782 5779 5777 5774 5772 5770 5769 5767 5764 5763
5868 5845 5818 5809 5807 5810 5838 5825 5821 5847 5857 5856 5855 5856 5857 5856 5850 5844 5840 5837 5833 5830 5826 5820 5814 5808 5806 5803 5799 5796 5792 5789 5785 5783 5781 5780 5779 5778 5778 5777 5774 5772 5770 5769 5767 5765 5762 5761 5759
5857 5846 5814 5794 5798 5815 5831 5818 5831 5858 5866 5867 5865 5861 5858 5853 5851 5845 5841 5836 5832 5828 5824 5818 5811 5807 5805 5801 5797 5795 5791 5788 5785 5782 5780 5778 5776 5776 5775 5773 5771 5769 5767 5765 5763 5761 5759 5757 5755
5850 5849 5856 5833 5824 5817 5817 5824 5838 5855 5859 5860 5859 5857 5852 5850 5848 5844 5841 5837 5832 5827 5822 5818 5811 5806 5803 5799 5796 5792 5789 5786 5783 5781 5779 5777 5775 5774 5772 5769 5767 5764 5762 5760 5758 5755 5754 5752 5750
5865 5859 5849 5831 5805 5798 5808 5810 5811 5820 5834 5848 5849 5849 5849 5847 5843 5839 5836 5832 5830 5825 5821 5816 5809 5804 5802 5798 5794 5792 5788 5785 5782 5779 5775 5774 5772 5769 5767 5765 5762 5760 5758 5756 5753 5751 5749 5747 5746
5846 5846 5842 5834 5828 5807 5794 5798 5832 5831 5837 5842 5843 5843 5843 5840 5836 5832 5830 5829 5826 5822 5817 5811 5807 5803 5799 5796 5792 5789 5786 5783 5779 5776 5773 5770 5768 5765 5762 5760 5757 5755 5752 5750 5747 5745 5744 5742 5740
5846 5842 5839 5816 5813 5819 5804 5802 5843 5841 5842 5841 5840 5841 5840 5837 5834 5830 5825 5823 5819 5815 5811 5808 5805 5801 5797 5793 5789 5785 5782 5779 5775 5772 5770 5767 5763 5761 5758 5756 5752 5749 5747 5745 5742 5739 5738 5736 5734